TimeEST,TemperatureF,Dew PointF,Humidity,Sea Level PressureIn,VisibilityMPH,Wind Direction,Wind SpeedMPH,Gust SpeedMPH,PrecipitationIn,Events,Conditions,WindDirDegrees,DateUTC
12:54 AM,26.1,23.0,88,30.06,10.0,Calm,Calm,-,N/A,,Clear,0,2012-11-09 05:54:00
1:54 AM,26.1,23.0,88,30.07,10.0,Calm,Calm,-,N/A,,Clear,0,2012-11-09 06:54:00
2:54 AM,25.0,23.0,92,30.08,10.0,Calm,Calm,-,N/A,,Clear,0,2012-11-09 07:54:00
3:54 AM,27.0,23.0,85,30.08,10.0,Calm,Calm,-,N/A,,Clear,0,2012-11-09 08:54:00
4:54 AM,24.1,21.9,91,30.09,10.0,Calm,Calm,-,N/A,,Clear,0,2012-11-09 09:54:00
5:54 AM,25.0,23.0,92,30.11,10.0,Calm,Calm,-,N/A,,Clear,0,2012-11-09 10:54:00
6:54 AM,26.1,24.1,92,30.12,10.0,Calm,Calm,-,N/A,,Mostly Cloudy,0,2012-11-09 11:54:00
7:54 AM,30.9,28.0,89,30.14,10.0,Calm,Calm,-,N/A,,Overcast,0,2012-11-09 12:54:00
8:54 AM,37.0,30.9,79,30.16,10.0,Calm,Calm,-,N/A,,Overcast,0,2012-11-09 13:54:00
9:54 AM,37.9,32.0,79,30.16,10.0,SSW,3.5,-,N/A,,Overcast,200,2012-11-09 14:54:00
10:54 AM,39.9,33.1,77,30.17,10.0,SSW,4.6,-,N/A,,Overcast,210,2012-11-09 15:54:00
11:54 AM,41.0,35.1,79,30.15,10.0,WSW,6.9,-,N/A,,Overcast,240,2012-11-09 16:54:00
12:54 PM,45.0,37.0,74,30.14,10.0,West,8.1,-,N/A,,Overcast,260,2012-11-09 17:54:00
1:22 PM,46.4,35.6,66,30.12,10.0,West,9.2,-,N/A,,Overcast,280,2012-11-09 18:22:00
1:54 PM,46.0,35.1,66,30.13,10.0,West,8.1,-,N/A,,Overcast,270,2012-11-09 18:54:00
2:54 PM,45.0,35.1,68,30.14,8.0,WSW,8.1,-,N/A,,Overcast,250,2012-11-09 19:54:00
3:54 PM,45.0,37.0,74,30.14,7.0,WSW,6.9,-,N/A,,Overcast,250,2012-11-09 20:54:00
4:54 PM,46.0,36.0,68,30.15,8.0,West,10.4,-,N/A,,Overcast,270,2012-11-09 21:54:00
5:54 PM,46.9,37.0,68,30.16,9.0,WNW,9.2,-,N/A,,Overcast,300,2012-11-09 22:54:00
6:54 PM,46.0,36.0,68,30.17,10.0,West,5.8,-,N/A,,Overcast,280,2012-11-09 23:54:00
7:54 PM,46.0,36.0,68,30.17,10.0,West,5.8,-,N/A,,Overcast,270,2012-11-10 00:54:00
8:54 PM,46.0,37.0,71,30.17,9.0,West,5.8,-,N/A,,Overcast,270,2012-11-10 01:54:00
9:54 PM,44.1,37.0,76,30.18,8.0,WSW,4.6,-,N/A,,Overcast,250,2012-11-10 02:54:00
10:17 PM,44.6,37.4,76,30.18,7.0,SW,5.8,-,N/A,,Overcast,220,2012-11-10 03:17:00
10:54 PM,44.1,37.9,79,30.19,7.0,SW,4.6,-,N/A,,Overcast,230,2012-11-10 03:54:00
11:54 PM,45.0,39.0,80,30.19,5.0,WSW,5.8,-,N/A,,Haze,250,2012-11-10 04:54:00